Regional Weather Roundup
Issued by NWS Jackson, KY

Home | Current Version | Previous Version | Graphics & Text | Print | Product List | Glossary Off
Versions: 1 2 3 4 5 6 7 8 9 10 11 12 13 14 15 16 17 18 19 20 21 22 23 24 25 26 27 28 29 30 31 32 33 34 35 36 37 38 39 40 41 42 43 44 45 46 47 48 49 50

000
ASUS43 KJKL 070810
RWRJKL

EAST KENTUCKY HOURLY WEATHER ROUNDUP
NATIONAL WEATHER SERVICE JACKSON KY
300 AM EST SUN FEB 07 2016

NOTE: "FAIR" INDICATES FEW OR NO CLOUDS BELOW 12,000 FEET WITH
NO SIGNIFICANT WEATHER AND/OR OBSTRUCTIONS TO VISIBILITY.

* THESE REPORTS ARE NOT UNDER NWS QUALITY CONTROL AND MAY NOT
  REPORT WEATHER SUCH AS PRECIPITATION AND FOG.

KYZ079-080-083-085-087-088-110-112-115-119-120-070900
...EASTERN KENTUCKY...

CITY           SKY/WX    TMP DP  RH WIND       PRES   REMARKS
JACKSON        CLEAR     35  19  52 W5        30.18F WCI  31
LONDON         CLEAR     26  21  81 CALM      30.20F
SOMERSET*      CLEAR     27  23  86 CALM      30.23F
MONTICELLO*    CLEAR     20  18  92 W9        30.23F WCI   9
WILLIAMSBURG*  SUNNY     28  25  86 CALM      30.21F
MIDDLESBORO*   CLEAR     27  26  93 CALM      30.22F
HARLAN APT*      N/A     30  27  86 CALM      30.19F
BLACK MTN*       N/A     27  19  74 VRB5        N/A  WCI  21
BIG SANDY*     SUNNY     35  23  61 CALM      30.19F
MOREHEAD APT*  MOSUNNY   30  25  80 CALM      30.22S
$$

KYZ035-036-041-042-044-050-067-078-099-070900
...CENTRAL KENTUCKY...

CITY           SKY/WX    TMP DP  RH WIND       PRES   REMARKS
MT STERLING*   CLEAR     28  25  86 SW7       30.21F WCI  21
DANVILLE*      CLEAR     28  23  80 SW3       30.22S
RICHMOND*      CLEAR     32  21  64 SW3       30.20F
LEXINGTON      CLEAR     32  22  66 SW6       30.19F WCI  26
FRANKFORT      PTCLDY    27  20  75 CALM      30.19F
$$

KYZ091>093-OHZ055-061-077-WVZ005-015-034-035-042-070900
...SOUTHERN OHIO/WEST VIRGINIA...

CITY           SKY/WX    TMP DP  RH WIND       PRES   REMARKS
COVINGTON      CLEAR     34  23  64 SW8       30.17F WCI  27
COLUMBUS       CLEAR     27  20  75 CALM      30.17F
DAYTON         CLEAR     34  24  67 S10       30.15F WCI  26
WILMINGTON     CLEAR     32  23  69 SW3       30.16F
HUNTINGTON       N/A     29  22  75 CALM      30.19F
CHARLESTON       N/A     27  22  81 CALM      30.19F
PINEVILLE*       N/A     26  22  82 MISG      30.22F
BECKLEY          N/A     28  17  63 CALM      30.14F
$$

VAZ002-007-008-TNZ017-027-036-066-071-070900
...SOUTHWEST VIRGINIA/EAST TENNESSEE...

CITY           SKY/WX    TMP DP  RH WIND       PRES   REMARKS
BRISTOL        CLEAR     24  21  88 CALM      30.19F
KNOXVILLE      PTCLDY    30  23  75 CALM      30.20F
OAK RIDGE      CLEAR     30  26  85 CALM      30.22F
CROSSVILLE     CLEAR     28  21  75 CALM      30.19F
NASHVILLE      CLEAR     30  24  78 S3        30.24F
$$

...KEY TO REMARKS...
VSB - VISIBILITY IN MILES
WCI - WIND CHILL INDEX
HX  - HEAT INDEX

$$



USA.gov is the U.S. government's official web portal to all federal, state and local government web resources and services.